sat.trackr.live / text

‹ back to catalog

STARLINK-2732

NORAD 48646 · 2021-044J

PAYLOAD ACTIVE UNKNOWN

§ Identity

Operator
Country
US
Launch date
2021-05-26
Launch site
AFETR
Launch vehicle
Mass (kg)
RCS (m²)

Purposes: comms

External: N2YO · Heavens-Above · Gunter

§ Orbital elements

Epoch: 2026-09-19T19:11:05.968896Z

Period
94.01 min
Inclination
53.1607°
Eccentricity
0.0001146
Mean motion
15.31694430 rev/d
Perigee alt
470.0 km
Apogee alt
471.5 km
Semi-major
6,848.9 km
B*
8.0480e-5
RAAN
290.5346°
Arg perigee
75.5225°
Mean anomaly
284.5903°
Rev number
29,357

§ Raw data

STARLINK-27321 48646U 21044J   26262.79937464  .00002133  00000+0  80480-4 0  99982 48646  53.1607 290.5346 0001146  75.5225 284.5903 15.31694430293572

JSON: /api/v1/satellites/48646 · /tle

For live sub-satellite position, see the globe view (requires WebGL).

§ Visibility from observer

Set your observer location to see the next 7 days of passes ≥ 10°. The values pass through the URL so the page stays shareable.

No JS? Fill the form by hand. The geolocation button needs JavaScript.